Tiempo atmosférico en la estación meteorológica de Vega de San Mateo, Las Palmas (1702 m.)



Fecha
DESCASC
Temp. máxima en grados centígrados (hora)
DESCASC
Temp. mínima en grados centígrados (hora)
DESCASC
Temp. media en grados centígrados
DESCASC
Racha de viento máxima en m/sg (hora)
DESCASC
Velocidad máxima media en intervalos de 10 minutos(hora)
DESCASC
Precipitaciones diarias en mm
DESCASC
Precipitaciones de 00:00 a 06:00 en mm
DESCASC
Precipitaciones de 06:00 a 12:00 en mm
DESCASC
Precipitaciones de 12:00 a 18:00 en mm
DESCASC
Precipitaciones de 18:00 a 24:00 en mm
DESCASC
06-07-2020 34.6 (15:10) 22.6 (05:40) 28.6 8.61 (02:00) 4.72 (04:00) 0 0 0 0 0
05-07-2020 32.6 (16:30) 20 (07:00) 26.3 6.94 (23:59) 4.17 (22:10) 0 0 0 0 0
04-07-2020 31.1 (13:40) 20.8 (00:00) 25.9 6.11 (15:40) 4.17 (15:20) 0 0 0 0 0
03-07-2020 31.8 (14:30) 20.6 (23:40) 26.2 5 (16:20) 3.06 (05:00) 0 0 0 0 0
02-07-2020 32.6 (14:40) 21.3 (00:00) 26.9 9.17 (16:20) 4.17 (13:50) 0 0 0 0 0
01-07-2020 33 (13:20) 21.8 (00:00) 27.4 9.17 (15:00) 4.72 (14:50) 0 0 0 0 0
30-06-2020 28.5 (16:40) 15.5 (00:00) 22 6.67 (17:00) 3.61 (11:20) 0 0 0 0 0
29-06-2020 22.4 (16:10) 10.8 (00:00) 16.6 8.61 (00:40) 5 (00:10) 0 0 0 0 0
28-06-2020 23.3 (14:20) 15.3 (00:00) 19.3 9.72 (21:50) 5.28 (23:30) 0 0 0 0 0
27-06-2020 27.7 (10:50) 15 (00:00) 21.4 6.67 (16:20) 3.33 (23:20) 0 0 0 0 0
26-06-2020 22.7 (14:30) 12.6 (00:00) 17.7 7.22 (01:30) 4.17 (20:20) 0 0 0 0 0
25-06-2020 20.6 (14:50) 12.5 (00:00) 16.6 8.06 (21:50) 4.17 (10:40) 0 0 0 0 0
24-06-2020 24 (13:50) 14.2 (00:00) 19.1 6.39 (12:20) 3.89 (23:20) 0 0 0 0 0
23-06-2020 26.3 (16:00) 14.5 (00:00) 20.4 6.39 (15:40) 3.06 (03:50) 0 0 0 0 0
22-06-2020 26.5 (19:30) 14.6 (00:00) 20.6 5.56 (08:50) 3.33 (23:00) 0 0 0 0 0
21-06-2020 23.7 (16:20) 15.1 (00:00) 19.4 6.94 (10:00) 3.89 (09:30) 0 0 0 0 0
20-06-2020 24.8 (16:50) 8.5 (00:00) 16.6 8.61 (00:30) 4.44 (00:30) 0 0 0 0 0
19-06-2020 16 (18:40) 8.2 (00:00) 12.1 11.11 (12:50) 5.83 (09:40) 1 0.4 0.6 0 0
18-06-2020 19.1 (14:20) 8.4 (00:00) 13.8 10 (23:30) 5.28 (22:30) 0 0 0 0 0
17-06-2020 21.3 (15:20) 11.5 (00:00) 16.4 20 (07:00) 13.06 (03:00) 0 0 0 0 0
16-06-2020 22.7 (14:50) 15.3 (00:00) 19 17.5 (23:30) 8.06 (14:00) 0 0 0 0 0
15-06-2020 20.3 (15:20) 14.3 (00:00) 17.3 12.22 (15:50) 7.22 (01:20) 1 1 0 0 0
14-06-2020 22.9 (12:30) 10.8 (00:00) 16.8 12.5 (22:30) 7.78 (22:20) 1.2 0 0 0 1.2
13-06-2020 19.3 (11:20) 8.1 (00:00) 13.7 11.94 (08:20) 6.39 (01:20) 0 0 0 0 0
12-06-2020 19.3 (16:50) 11.4 (00:00) 15.3 13.33 (05:00) 7.22 (00:20) 0 0 0 0 0
11-06-2020 20.4 (12:10) 14.1 (00:00) 17.3 14.72 (22:50) 7.22 (22:30) 0 0 0 0 0
10-06-2020 18.9 (16:00) 9.1 (00:00) 14 9.17 (16:50) 5.56 (14:40) 0 0 0 0 0
09-06-2020 20 (10:00) 10.2 (00:00) 15.1 6.94 (12:10) 3.33 (15:30) 0 0 0 0 0

Gráficas

Temp. máximas Temp. mínimas Temp. medias Precipitaciones Rachas de viento máximas Velocidades máximas media en intervalos de 10 minutos

Datos horarios

Fecha y hora oficial Temperatura (ºC) Velocidad del viento (km/h) Dirección del viento Racha (km/h) Dirección de racha Precipitación (mm) Presión (hPa) Tendencia (hPa) Humedad (%)
2020-07-08 23:00:00 23.6 12 Este 26 Este 0 -- -- 12
2020-07-08 22:00:00 24 13 Este 27 Este 0 -- -- 13
2020-07-08 21:00:00 24.2 14 Este 25 Este 0 -- -- 13
2020-07-08 20:00:00 25 11 Este 23 Nordeste 0 -- -- 13
2020-07-08 19:00:00 29.2 9 Este 19 Este 0 -- -- 14
2020-07-08 18:00:00 30 10 Este 24 Este 0 -- -- 14
2020-07-08 17:00:00 30.1 11 Este 24 Este 0 -- -- 18
2020-07-08 16:00:00 30.8 10 Este 22 Este 0 -- -- 17
2020-07-08 15:00:00 31 8 Este 26 Sudeste 0 -- -- 14
2020-07-08 14:00:00 30.1 11 Este 27 Este 0 -- -- 13
2020-07-08 13:00:00 31.5 8 Este 24 Sudeste 0 -- -- 14
2020-07-08 12:00:00 29.7 12 Este 21 Este 0 -- -- 13
2020-07-08 11:00:00 31.1 7 Sudeste 22 Este 0 -- -- 14
2020-07-08 10:00:00 29.5 10 Este 28 Este 0 -- -- 14
2020-07-08 09:00:00 27.2 12 Este 23 Este 0 -- -- 15
2020-07-08 08:00:00 25.4 11 Este 23 Este 0 -- -- 15
2020-07-08 07:00:00 24.7 11 Este 28 Este 0 -- -- 15
2020-07-08 06:00:00 25 15 Este 29 Este 0 -- -- 15
2020-07-08 05:00:00 24.5 13 Este 25 Este 0 -- -- 17
2020-07-08 04:00:00 24.2 10 Este 20 Este 0 -- -- 20
2020-07-08 03:00:00 24.3 10 Este 20 Este 0 -- -- 21
2020-07-08 02:00:00 25.8 10 Este 23 Este 0 -- -- 17
2020-07-08 01:00:00 26.2 12 Este 22 Este 0 -- -- 17
2020-07-08 00:00:00 26.5 9 Este 20 Este 0 -- -- 17
2020-07-07 23:00:00 26.7 8 Este 21 Este 0 -- -- 17
2020-07-07 22:00:00 26.9 7 Este 15 Este 0 -- -- 16
2020-07-07 21:00:00 27.5 5 Sudeste 10 Este 0 -- -- 16
2020-07-07 20:00:00 29.5 6 Norte 17 Norte 0 -- -- 15
2020-07-07 19:00:00 32 7 Norte 19 Oeste 0 -- -- 16
2020-07-07 18:00:00 33.2 9 Noroeste 28 Oeste 0 -- -- 15
2020-07-07 17:00:00 33.1 13 Oeste 27 Oeste 0 -- -- 14
2020-07-07 16:00:00 32.8 14 Oeste 29 Oeste 0 -- -- 14
2020-07-07 15:00:00 33 14 Oeste 30 Oeste 0 -- -- 14
2020-07-07 14:00:00 33 16 Oeste 29 Oeste 0 -- -- 13
2020-07-07 13:00:00 32.2 17 Oeste 27 Oeste 0 -- -- 13
2020-07-07 12:00:00 32 14 Oeste 23 Oeste 0 -- -- 14
2020-07-07 11:00:00 31.1 12 Oeste 18 Oeste 0 -- -- 14
2020-07-07 10:00:00 30.1 9 Oeste 15 Oeste 0 -- -- 14
2020-07-07 09:00:00 27.9 6 Oeste 9 Sudoeste 0 -- -- 17
2020-07-07 08:00:00 24.5 4 Sudoeste 11 Sudoeste 0 -- -- 19
2020-07-07 07:00:00 25.7 6 Sudoeste 11 Sur 0 -- -- 18
2020-07-07 06:00:00 23.7 6 Sudoeste 9 Sudoeste 0 -- -- 18
2020-07-07 05:00:00 23.6 2 Sur 5 Sudoeste 0 -- -- 18
2020-07-07 04:00:00 24 2 Sur 4 Sur 0 -- -- 18
2020-07-07 03:00:00 25.2 4 Sur 6 Sur 0 -- -- 16
2020-07-07 02:00:00 24.5 3 Sudeste 13 Sudeste 0 -- -- 20
2020-07-07 01:00:00 26.7 8 Sudeste 13 Sudeste 0 -- -- 18
2020-07-07 00:00:00 26.3 7 Sudeste 12 Sudeste 0 -- -- 19
2020-07-06 23:00:00 26.4 6 Sudeste 17 Sudeste 0 -- -- 24
2020-07-06 22:00:00 27.4 7 Sudeste 16 Sur 0 -- -- 18
2020-07-06 21:00:00 27.6 5 Sudeste 9 Sudeste 0 -- -- 17
2020-07-06 20:00:00 30.8 3 Sur 10 Oeste 0 -- -- 18
2020-07-06 19:00:00 32.3 5 Oeste 17 Noroeste 0 -- -- 21
2020-07-06 18:00:00 32.9 8 Noroeste 21 Oeste 0 -- -- 19
2020-07-06 17:00:00 32.8 14 Oeste 30 Oeste 0 -- -- 19
2020-07-06 16:00:00 34.1 9 Oeste 20 Oeste 0 -- -- 18
2020-07-06 15:00:00 33.9 7 Oeste 15 Sudoeste 0 -- -- 17
2020-07-06 14:00:00 33.4 10 Oeste 19 Oeste 0 -- -- 16
2020-07-06 13:00:00 33.3 10 Oeste 20 Sudeste 0 -- -- 17
2020-07-06 12:00:00 33.1 6 Este 25 Nordeste 0 -- -- 17
2020-07-06 11:00:00 31.3 13 Este 25 Este 0 -- -- 16
2020-07-06 10:00:00 29.9 12 Este 25 Este 0 -- -- 17
2020-07-06 09:00:00 26.6 13 Este 24 Este 0 -- -- 20
2020-07-06 08:00:00 24.6 13 Este 25 Este 0 -- -- 20
2020-07-06 07:00:00 23.4 12 Este 24 Este 0 -- -- 19
2020-07-06 06:00:00 23 13 Este 25 Nordeste 0 -- -- 19
2020-07-06 05:00:00 23 15 Este 28 Este 0 -- -- 13
2020-07-06 04:00:00 23 17 Este 29 Nordeste 0 -- -- 14
2020-07-06 03:00:00 23.4 13 Este 27 Este 0 -- -- 16
2020-07-06 02:00:00 23.6 15 Este 31 Nordeste 0 -- -- 17
2020-07-06 01:00:00 23.9 14 Este 28 Este 0 -- -- 18
2020-07-06 00:00:00 24.3 14 Este 25 Nordeste 0 -- -- 19
2020-07-05 23:00:00 24 14 Este 24 Este 0 -- -- 18
2020-07-05 22:00:00 24.4 13 Este 23 Nordeste 0 -- -- 19
2020-07-05 21:00:00 24.7 12 Este 18 Este 0 -- -- 19
2020-07-05 20:00:00 27.2 9 Este 17 Nordeste 0 -- -- 18
2020-07-05 19:00:00 30 6 Nordeste 19 Nordeste 0 -- -- 17
2020-07-05 18:00:00 30.3 8 Nordeste 18 Nordeste 0 -- -- 17
2020-07-05 17:00:00 32.2 5 Norte 14 Norte 0 -- -- 17
2020-07-05 16:00:00 31.9 8 Nordeste 16 Este 0 -- -- 15
2020-07-05 15:00:00 30.2 4 Nordeste 19 Sur 0 -- -- 17
2020-07-05 14:00:00 31.5 5 Sudeste 21 Norte 0 -- -- 15
2020-07-05 13:00:00 31.3 8 Este 17 Nordeste 0 -- -- 14
2020-07-05 12:00:00 29.5 8 Nordeste 15 Nordeste 0 -- -- 16
2020-07-05 11:00:00 30 8 Nordeste 14 Este 0 -- -- 15
2020-07-05 10:00:00 29.4 6 Este 12 Nordeste 0 -- -- 16
2020-07-05 09:00:00 27.1 5 Este 10 Este 0 -- -- 17
2020-07-05 08:00:00 22.2 4 Este 8 Nordeste 0 -- -- 20
2020-07-05 07:00:00 20 2 Nordeste 4 Nordeste 0 -- -- 23
2020-07-05 06:00:00 21.6 2 Nordeste 5 Noroeste 0 -- -- 21
2020-07-05 05:00:00 21.7 3 Norte 7 Noroeste 0 -- -- 21
2020-07-05 04:00:00 21.2 4 Norte 7 Noroeste 0 -- -- 22
2020-07-05 03:00:00 21.8 0 Calma 3 Nordeste 0 -- -- 21
2020-07-05 02:00:00 21.1 0 Calma 4 Nordeste 0 -- -- 21
2020-07-05 01:00:00 21.7 3 Este 5 Nordeste 0 -- -- 22
2020-07-05 00:00:00 21.5 0 Calma 6 Nordeste 0 -- -- 28
2020-07-04 23:00:00 21.9 3 Este 4 Nordeste 0 -- -- 29
2020-07-04 22:00:00 21.7 0 Calma 3 Nordeste 0 -- -- 29
2020-07-04 21:00:00 23.4 0 Calma 6 Oeste 0 -- -- 26
2020-07-04 20:00:00 27.5 6 Oeste 15 Oeste 0 -- -- 16
2020-07-04 19:00:00 29.2 8 Noroeste 15 Oeste 0 -- -- 21
2020-07-04 18:00:00 29.3 10 Oeste 18 Oeste 0 -- -- 21
2020-07-04 17:00:00 29.5 12 Oeste 19 Oeste 0 -- -- 19
2020-07-04 16:00:00 29.8 13 Oeste 22 Noroeste 0 -- -- 25
2020-07-04 15:00:00 29.5 14 Oeste 20 Oeste 0 -- -- 17
2020-07-04 14:00:00 30.9 8 Noroeste 15 Noroeste 0 -- -- 14
2020-07-04 13:00:00 30.5 7 Noroeste 17 Oeste 0 -- -- 12
2020-07-04 12:00:00 30.5 8 Noroeste 15 Oeste 0 -- -- 13
2020-07-04 11:00:00 30.5 5 Norte 12 Norte 0 -- -- 13
2020-07-04 10:00:00 29.3 7 Norte 12 Este 0 -- -- 13
2020-07-04 09:00:00 26.9 5 Nordeste 11 Este 0 -- -- 14
2020-07-04 08:00:00 23.7 6 Nordeste 16 Nordeste 0 -- -- 14
2020-07-04 07:00:00 22.5 5 Este 12 Sudeste 0 -- -- 11
2020-07-04 06:00:00 22.6 6 Este 11 Este 0 -- -- 11
2020-07-04 05:00:00 21.7 6 Este 13 Nordeste 0 -- -- 10
2020-07-04 04:00:00 21.9 7 Este 16 Nordeste 0 -- -- 8
2020-07-04 03:00:00 22.2 8 Este 13 Nordeste 0 -- -- 8
2020-07-04 02:00:00 21.8 8 Este 18 Nordeste 0 -- -- 9
2020-07-04 01:00:00 22 8 Este 15 Este 0 -- -- 8
2020-07-04 00:00:00 20.8 9 Este 15 Nordeste 0 -- -- 7
2020-07-03 23:00:00 21.6 8 Este 14 Este 0 -- -- 7
2020-07-03 22:00:00 23.6 6 Este 12 Nordeste 0 -- -- 12
2020-07-03 21:00:00 23.7 5 Este 9 Este 0 -- -- 14
2020-07-03 20:00:00 27.4 4 Este 9 Este 0 -- -- 13
2020-07-03 19:00:00 30.2 4 Este 14 Noroeste 0 -- -- 13
2020-07-03 18:00:00 29.4 9 Norte 17 Noroeste 0 -- -- 12
2020-07-03 17:00:00 30.3 6 Nordeste 18 Norte 0 -- -- 14
2020-07-03 16:00:00 31 6 Nordeste 17 Nordeste 0 -- -- 13
2020-07-03 15:00:00 31.1 7 Nordeste 14 Este 0 -- -- 13
2020-07-03 14:00:00 29.8 9 Nordeste 16 Nordeste 0 -- -- 15
2020-07-03 13:00:00 30 8 Este 15 Nordeste 0 -- -- 15
2020-07-03 12:00:00 29.8 8 Nordeste 17 Nordeste 0 -- -- 13
2020-07-03 11:00:00 28.7 9 Este 18 Este 0 -- -- 9
2020-07-03 10:00:00 27.6 9 Este 17 Este 0 -- -- 7
2020-07-03 09:00:00 25.7 9 Este 16 Este 0 -- -- 10
2020-07-03 08:00:00 23.2 8 Este 15 Este 0 -- -- 10
2020-07-03 07:00:00 22.2 9 Este 18 Este 0 -- -- 8
2020-07-03 06:00:00 22.3 9 Este 17 Nordeste 0 -- -- 7
2020-07-03 05:00:00 22.9 11 Nordeste 18 Este 0 -- -- 7
2020-07-03 04:00:00 22.6 11 Este 17 Nordeste 0 -- -- 6
2020-07-03 03:00:00 22.2 8 Este 14 Este 0 -- -- 10
2020-07-03 02:00:00 22.9 7 Nordeste 13 Este 0 -- -- 14
2020-07-03 01:00:00 22.7 6 Este 13 Este 0 -- -- 15
2020-07-03 00:00:00 23.2 8 Este 15 Nordeste 0 -- -- 15
2020-07-02 23:00:00 23.4 9 Este 17 Este 0 -- -- 12
2020-07-02 22:00:00 22.9 8 Nordeste 13 Este 0 -- -- 14
2020-07-02 21:00:00 24.1 5 Nordeste 10 Norte 0 -- -- 19
2020-07-02 20:00:00 27.9 5 Nordeste 15 Oeste 0 -- -- 18
2020-07-02 19:00:00 29.8 6 Oeste 16 Oeste 0 -- -- 23
2020-07-02 18:00:00 31.5 9 Oeste 18 Noroeste 0 -- -- 19
2020-07-02 17:00:00 29.4 9 Oeste 33 Sudeste 0 -- -- 22
2020-07-02 16:00:00 29.5 14 Noroeste 23 Oeste 0 -- -- 20
2020-07-02 15:00:00 31.6 12 Oeste 25 Sudeste 0 -- -- 17
2020-07-02 14:00:00 32.2 12 Sudeste 29 Sudeste 0 -- -- 16
2020-07-02 13:00:00 31.8 9 Sudeste 21 Sudeste 0 -- -- 14
2020-07-02 12:00:00 31.1 4 Nordeste 12 Este 0 -- -- 14
2020-07-02 11:00:00 30 8 Nordeste 17 Este 0 -- -- 12
2020-07-02 10:00:00 28.1 9 Este 16 Este 0 -- -- 12
2020-07-02 09:00:00 25 8 Este 15 Este 0 -- -- 13
2020-07-02 08:00:00 23.5 9 Este 17 Este 0 -- -- 12
2020-07-02 07:00:00 23.1 10 Este 15 Este 0 -- -- 12
2020-07-02 06:00:00 22 7 Este 13 Nordeste 0 -- -- 14
2020-07-02 05:00:00 21.9 6 Nordeste 11 Nordeste 0 -- -- 16
2020-07-02 04:00:00 22.3 4 Este 6 Nordeste 0 -- -- 20
2020-07-02 03:00:00 21.4 4 Nordeste 6 Nordeste 0 -- -- 23
2020-07-02 02:00:00 22.3 4 Nordeste 6 Nordeste 0 -- -- 23
2020-07-02 01:00:00 21.9 3 Este 6 Nordeste 0 -- -- 24
2020-07-02 00:00:00 23.2 3 Nordeste 5 Este 0 -- -- 24
2020-07-01 23:00:00 23 2 Este 4 Este 0 -- -- 24
2020-07-01 22:00:00 22.4 0 Calma 4 Noroeste 0 -- -- 19
2020-07-01 21:00:00 24.2 3 Oeste 6 Oeste 0 -- -- 24
2020-07-01 20:00:00 27.9 3 Oeste 11 Oeste 0 -- -- 20
2020-07-01 19:00:00 29.5 6 Oeste 19 Oeste 0 -- -- 18
2020-07-01 18:00:00 31.2 8 Oeste 21 Noroeste 0 -- -- 20
2020-07-01 17:00:00 31.1 13 Noroeste 26 Oeste 0 -- -- 19
2020-07-01 16:00:00 32.6 12 Oeste 31 Oeste 0 -- -- 14
2020-07-01 15:00:00 31.5 15 Oeste 33 Oeste 0 -- -- 15
2020-07-01 14:00:00 31.7 16 Oeste 27 Oeste 0 -- -- 12
2020-07-01 13:00:00 32.5 10 Oeste 25 Noroeste 0 -- -- 12
2020-07-01 12:00:00 30.5 11 Oeste 24 Oeste 0 -- -- 11
2020-07-01 11:00:00 30.6 10 Sudoeste 23 Sur 0 -- -- 11
2020-07-01 10:00:00 29 9 Sudoeste 22 Sudoeste 0 -- -- 12
2020-07-01 09:00:00 26.8 10 Sudoeste 19 Sudoeste 0 -- -- 12
2020-07-01 08:00:00 24.7 9 Sudoeste 18 Sudoeste 0 -- -- 13
2020-07-01 07:00:00 24.5 8 Sudoeste 22 Sudoeste 0 -- -- 13
2020-07-01 06:00:00 24.6 11 Sudoeste 20 Sudoeste 0 -- -- 11
2020-07-01 05:00:00 24.5 9 Sudoeste 21 Oeste 0 -- -- 12
2020-07-01 04:00:00 22.9 4 Sudoeste 18 Sudoeste 0 -- -- 12
2020-07-01 03:00:00 23.2 8 Sudoeste 20 Sudoeste 0 -- -- 12
2020-07-01 02:00:00 23.4 9 Sudoeste 18 Sudoeste 0 -- -- 12
2020-07-01 01:00:00 22.7 8 Sudoeste 17 Sudoeste 0 -- -- 12
2020-07-01 00:00:00 22.2 6 Sudoeste 13 Sudoeste 0 -- -- 11
2020-06-30 23:00:00 23.1 8 Sudoeste 14 Sudoeste 0 -- -- 9
2020-06-30 22:00:00 22.4 6 Sudoeste 14 Oeste 0 -- -- 10
2020-06-30 21:00:00 23.9 6 Sudoeste 17 Sudoeste 0 -- -- 12
2020-06-30 20:00:00 25.8 9 Oeste 19 Noroeste 0 -- -- 21
2020-06-30 19:00:00 26.5 10 Oeste 22 Oeste 0 -- -- 36
2020-06-30 18:00:00 27.5 10 Oeste 22 Oeste 0 -- -- 33
2020-06-30 17:00:00 28.1 13 Oeste 24 Oeste 0 -- -- 21
2020-06-30 16:00:00 27.7 9 Oeste 20 Oeste 0 -- -- 32
2020-06-30 15:00:00 28.2 10 Oeste 21 Oeste 0 -- -- 25
2020-06-30 14:00:00 26.2 9 Oeste 18 Oeste 0 -- -- 32
2020-06-30 13:00:00 27 8 Oeste 18 Sur 0 -- -- 22
2020-06-30 12:00:00 28.1 8 Sur 20 Sudeste 0 -- -- 10
2020-06-30 11:00:00 26.8 10 Sur 20 Sudeste 0 -- -- 6
2020-06-30 10:00:00 26.3 9 Sudeste 18 Sudeste 0 -- -- 6
2020-06-30 09:00:00 24 0 Calma 11 Nordeste 0 -- -- 14
2020-06-30 08:00:00 17.7 6 Este 15 Nordeste 0 -- -- 18
2020-06-30 07:00:00 17.1 9 Este 14 Este 0 -- -- 16
2020-06-30 06:00:00 16.2 5 Nordeste 12 Nordeste 0 -- -- 16
2020-06-30 05:00:00 16.2 6 Nordeste 14 Nordeste 0 -- -- 17
2020-06-30 04:00:00 16 3 Este 12 Nordeste 0 -- -- 18
2020-06-30 03:00:00 15.6 5 Nordeste 15 Este 0 -- -- 18
2020-06-30 02:00:00 15.6 7 Nordeste 18 Nordeste 0 -- -- 19
2020-06-30 01:00:00 16.2 10 Nordeste 17 Nordeste 0 -- -- 25
2020-06-30 00:00:00 15.7 8 Este 19 Nordeste 0 -- -- 30
2020-06-29 23:00:00 16.6 10 Nordeste 18 Nordeste 0 -- -- 30
2020-06-29 22:00:00 16.5 10 Nordeste 19 Nordeste 0 -- -- 32
2020-06-29 21:00:00 17.2 12 Nordeste 21 Nordeste 0 -- -- 32
2020-06-29 20:00:00 19.5 13 Nordeste 24 Nordeste 0 -- -- 32
2020-06-29 19:00:00 20.5 14 Nordeste 23 Nordeste 0 -- -- 29
2020-06-29 18:00:00 21.3 13 Este 24 Nordeste 0 -- -- 29
2020-06-29 17:00:00 21.6 13 Nordeste 22 Este 0 -- -- 27
2020-06-29 16:00:00 22.1 11 Nordeste 23 Nordeste 0 -- -- 23
2020-06-29 15:00:00 21.4 11 Nordeste 25 Este 0 -- -- 31
2020-06-29 14:00:00 20.6 14 Nordeste 26 Nordeste 0 -- -- 37
2020-06-29 13:00:00 20.6 13 Este 24 Nordeste 0 -- -- 38
2020-06-29 12:00:00 19 14 Este 25 Nordeste 0 -- -- 42
2020-06-29 11:00:00 18.5 15 Nordeste 26 Este 0 -- -- 39
2020-06-29 10:00:00 18.1 13 Este 24 Este 0 -- -- 39
2020-06-29 09:00:00 16.8 11 Nordeste 26 Este 0 -- -- 36
2020-06-29 08:00:00 14.1 13 Este 26 Nordeste 0 -- -- 47
2020-06-29 07:00:00 13.1 14 Este 28 Este 0 -- -- 51
2020-06-29 06:00:00 13.3 12 Este 24 Nordeste 0 -- -- 50
2020-06-29 05:00:00 14.3 13 Este 24 Nordeste 0 -- -- 43
2020-06-29 04:00:00 13.9 13 Este 24 Este 0 -- -- 46
2020-06-29 03:00:00 14.8 14 Este 30 Este 0 -- -- 34
2020-06-29 02:00:00 15 15 Este 31 Nordeste 0 -- -- 39
2020-06-29 01:00:00 15.3 17 Este 31 Este 0 -- -- 28
2020-06-29 00:00:00 16.2 17 Este 34 Este 0 -- -- 21
2020-06-28 23:00:00 15.9 15 Este 31 Nordeste 0 -- -- 22
2020-06-28 22:00:00 16.7 15 Este 35 Este 0 -- -- 19
2020-06-28 21:00:00 16.6 16 Este 27 Este 0 -- -- 24
2020-06-28 20:00:00 18.3 15 Este 30 Este 0 -- -- 25
2020-06-28 19:00:00 19.7 14 Este 26 Nordeste 0 -- -- 23
2020-06-28 18:00:00 20.7 14 Este 27 Este 0 -- -- 23
2020-06-28 17:00:00 22 11 Este 21 Este 0 -- -- 23
2020-06-28 16:00:00 22 12 Nordeste 20 Nordeste 0 -- -- 22
2020-06-28 15:00:00 22.6 9 Este 21 Este 0 -- -- 22
2020-06-28 14:00:00 22.4 10 Nordeste 20 Nordeste 0 -- -- 23
2020-06-28 13:00:00 22 11 Nordeste 18 Nordeste 0 -- -- 28
2020-06-28 12:00:00 21.8 11 Nordeste 21 Este 0 -- -- 28
2020-06-28 11:00:00 21.7 13 Nordeste 23 Sudeste 0 -- -- 22
2020-06-28 10:00:00 20.9 14 Nordeste 24 Nordeste 0 -- -- 23
2020-06-28 09:00:00 18.8 14 Nordeste 25 Nordeste 0 -- -- 24
2020-06-28 08:00:00 16.2 13 Nordeste 23 Este 0 -- -- 26
2020-06-28 07:00:00 15.3 12 Nordeste 22 Nordeste 0 -- -- 25
2020-06-28 06:00:00 15.8 12 Nordeste 20 Nordeste 0 -- -- 20
2020-06-28 05:00:00 16.4 12 Nordeste 21 Nordeste 0 -- -- 18
2020-06-28 04:00:00 16.9 12 Nordeste 19 Este 0 -- -- 15
2020-06-28 03:00:00 17.3 12 Este 20 Nordeste 0 -- -- 7
2020-06-28 02:00:00 17.3 10 Nordeste 19 Este 0 -- -- 4
2020-06-28 01:00:00 17.8 12 Este 19 Nordeste 0 -- -- 4
2020-06-28 00:00:00 18.1 10 Nordeste 19 Nordeste 0 -- -- 5
2020-06-27 23:00:00 17.4 8 Nordeste 18 Nordeste 0 -- -- 5
2020-06-27 22:00:00 17.9 10 Nordeste 17 Este 0 -- -- 7
2020-06-27 21:00:00 18.6 9 Nordeste 16 Nordeste 0 -- -- 10
2020-06-27 20:00:00 22 7 Nordeste 15 Nordeste 0 -- -- 10
2020-06-27 19:00:00 25.9 8 Norte 13 Norte 0 -- -- 19
2020-06-27 18:00:00 26.1 8 Norte 17 Noroeste 0 -- -- 27
2020-06-27 17:00:00 26 8 Oeste 24 Noroeste 0 -- -- 27
2020-06-27 16:00:00 25.8 9 Oeste 15 Oeste 0 -- -- 27
2020-06-27 15:00:00 26 8 Noroeste 14 Noroeste 0 -- -- 29
2020-06-27 14:00:00 25.8 6 Noroeste 14 Oeste 0 -- -- 29
2020-06-27 13:00:00 25.7 9 Oeste 15 Noroeste 0 -- -- 23
2020-06-27 12:00:00 27.1 6 Oeste 14 Oeste 0 -- -- 18
2020-06-27 11:00:00 27.2 5 Noroeste 10 Nordeste 0 -- -- 17
2020-06-27 10:00:00 27.6 2 Nordeste 9 Nordeste 0 -- -- 12
2020-06-27 09:00:00 23 3 Este 10 Nordeste 0 -- -- 14
2020-06-27 08:00:00 15.8 5 Este 7 Nordeste 0 -- -- 14
2020-06-27 07:00:00 15.3 4 Este 13 Este 0 -- -- 12
2020-06-27 06:00:00 16.8 9 Nordeste 16 Nordeste 0 -- -- 9
2020-06-27 05:00:00 16.8 10 Este 15 Nordeste 0 -- -- 11
2020-06-27 04:00:00 15.5 8 Nordeste 15 Nordeste 0 -- -- 12
2020-06-27 03:00:00 16.1 9 Este 17 Nordeste 0 -- -- 15
2020-06-27 02:00:00 16.2 11 Nordeste 19 Nordeste 0 -- -- 15
2020-06-27 01:00:00 16.4 12 Nordeste 21 Este 0 -- -- 16
2020-06-27 00:00:00 15 12 Nordeste 20 Nordeste 0 -- -- 19
2020-06-26 23:00:00 15.9 11 Este 21 Nordeste 0 -- -- 16
2020-06-26 22:00:00 15 13 Nordeste 21 Nordeste 0 -- -- 19
2020-06-26 21:00:00 15.3 13 Nordeste 24 Nordeste 0 -- -- 21
2020-06-26 20:00:00 18.6 12 Este 21 Este 0 -- -- 15
2020-06-26 19:00:00 20.6 10 Este 18 Nordeste 0 -- -- 15
2020-06-26 18:00:00 21.1 10 Nordeste 19 Nordeste 0 -- -- 15
2020-06-26 17:00:00 21.7 12 Nordeste 19 Nordeste 0 -- -- 21
2020-06-26 16:00:00 21.8 10 Este 21 Nordeste 0 -- -- 22
2020-06-26 15:00:00 21.8 12 Nordeste 19 Nordeste 0 -- -- 21
2020-06-26 14:00:00 21.5 11 Este 18 Nordeste 0 -- -- 24
2020-06-26 13:00:00 20.8 13 Nordeste 24 Nordeste 0 -- -- 26
2020-06-26 12:00:00 19.2 14 Nordeste 23 Nordeste 0 -- -- 19
2020-06-26 11:00:00 20.2 12 Nordeste 20 Nordeste 0 -- -- 20
2020-06-26 10:00:00 19.3 12 Nordeste 23 Nordeste 0 -- -- 25
2020-06-26 09:00:00 18.1 12 Nordeste 21 Nordeste 0 -- -- 16
2020-06-26 08:00:00 14.8 10 Nordeste 21 Nordeste 0 -- -- 18
2020-06-26 07:00:00 13.9 10 Nordeste 20 Nordeste 0 -- -- 24
2020-06-26 06:00:00 12.6 7 Nordeste 16 Este 0 -- -- 24
2020-06-26 05:00:00 13.4 7 Este 18 Nordeste 0 -- -- 20
2020-06-26 04:00:00 12.7 12 Nordeste 22 Este 0 -- -- 32
2020-06-26 03:00:00 13.7 12 Nordeste 23 Nordeste 0 -- -- 27
2020-06-26 02:00:00 13.1 12 Este 26 Este 0 -- -- 32
2020-06-26 01:00:00 13.5 10 Este 20 Nordeste 0 -- -- 29
2020-06-26 00:00:00 13.8 10 Este 23 Nordeste 0 -- -- 28
2020-06-25 23:00:00 13 13 Este 25 Nordeste 0 -- -- 36
2020-06-25 22:00:00 12.7 12 Este 29 Este 0 -- -- 37
2020-06-25 21:00:00 14.8 12 Este 24 Nordeste 0 -- -- 35
2020-06-25 20:00:00 17.2 14 Este 27 Nordeste 0 -- -- 32
2020-06-25 19:00:00 18.1 12 Este 23 Este 0 -- -- 28
2020-06-25 18:00:00 19.2 11 Este 23 Este 0 -- -- 31
2020-06-25 17:00:00 19 13 Este 22 Nordeste 0 -- -- 29
2020-06-25 16:00:00 19.3 12 Este 25 Nordeste 0 -- -- 37
2020-06-25 15:00:00 19.5 13 Nordeste 23 Este 0 -- -- 30
2020-06-25 14:00:00 19.8 11 Nordeste 27 Nordeste 0 -- -- 27
2020-06-25 13:00:00 19.3 14 Nordeste 24 Este 0 -- -- 25
2020-06-25 12:00:00 18.9 14 Nordeste 24 Este 0 -- -- 29
2020-06-25 11:00:00 18.1 13 Nordeste 23 Este 0 -- -- 31
2020-06-25 10:00:00 17.7 13 Este 27 Nordeste 0 -- -- 31
2020-06-25 09:00:00 16.9 13 Este 23 Este 0 -- -- 27
2020-06-25 08:00:00 14.6 10 Este 20 Este 0 -- -- 29
2020-06-25 07:00:00 14.1 10 Este 20 Nordeste 0 -- -- 27
2020-06-25 06:00:00 14.1 8 Este 18 Nordeste 0 -- -- 23
2020-06-25 05:00:00 14.3 8 Este 19 Nordeste 0 -- -- 23
2020-06-25 04:00:00 14.6 9 Este 19 Este 0 -- -- 25
2020-06-25 03:00:00 14.8 10 Este 22 Nordeste 0 -- -- 24
2020-06-25 02:00:00 14.8 11 Este 21 Este 0 -- -- 27
2020-06-25 01:00:00 14.6 7 Este 19 Nordeste 0 -- -- 21
2020-06-25 00:00:00 14.4 11 Este 22 Nordeste 0 -- -- 27
2020-06-24 23:00:00 16 11 Este 19 Nordeste 0 -- -- 20
2020-06-24 22:00:00 15.5 9 Este 19 Nordeste 0 -- -- 22
2020-06-24 21:00:00 17.2 8 Nordeste 19 Nordeste 0 -- -- 21
2020-06-24 20:00:00 20.7 6 Nordeste 15 Nordeste 0 -- -- 13
2020-06-24 19:00:00 22 6 Nordeste 15 Nordeste 0 -- -- 16
2020-06-24 18:00:00 22.5 8 Norte 19 Noroeste 0 -- -- 20
2020-06-24 17:00:00 23 9 Norte 18 Noroeste 0 -- -- 16
2020-06-24 16:00:00 21.6 10 Oeste 18 Oeste 0 -- -- 47
2020-06-24 15:00:00 22.9 9 Norte 22 Noroeste 0 -- -- 23
2020-06-24 14:00:00 22.2 12 Noroeste 21 Noroeste 0 -- -- 22
2020-06-24 13:00:00 23.7 6 Norte 23 Norte 0 -- -- 14
2020-06-24 12:00:00 22.8 6 Norte 17 Este 0 -- -- 17
2020-06-24 11:00:00 23.3 5 Nordeste 14 Este 0 -- -- 17
2020-06-24 10:00:00 21.7 8 Nordeste 14 Nordeste 0 -- -- 12
2020-06-24 09:00:00 19.8 8 Nordeste 13 Este 0 -- -- 17
2020-06-24 08:00:00 14.7 6 Este 15 Nordeste 0 -- -- 19
2020-06-24 07:00:00 15.1 8 Nordeste 13 Nordeste 0 -- -- 16
2020-06-24 06:00:00 14.8 8 Este 14 Nordeste 0 -- -- 15
2020-06-24 05:00:00 15.2 7 Este 15 Nordeste 0 -- -- 14
2020-06-24 04:00:00 15.2 7 Este 14 Este 0 -- -- 16
2020-06-24 03:00:00 15.2 7 Este 15 Este 0 -- -- 19
2020-06-24 02:00:00 15.4 9 Este 18 Nordeste 0 -- -- 20
2020-06-24 01:00:00 15.7 9 Este 21 Nordeste 0 -- -- 20
2020-06-24 00:00:00 15.7 10 Este 20 Nordeste 0 -- -- 18
2020-06-23 23:00:00 15.3 10 Este 19 Nordeste 0 -- -- 19
2020-06-23 22:00:00 15.6 10 Este 19 Este 0 -- -- 20
2020-06-23 21:00:00 17 10 Este 17 Nordeste 0 -- -- 18
2020-06-23 20:00:00 19.1 10 Nordeste 17 Este 0 -- -- 18
2020-06-23 19:00:00 21.6 6 Nordeste 15 Nordeste 0 -- -- 14
2020-06-23 18:00:00 23.5 6 Nordeste 15 Este 0 -- -- 34
2020-06-23 17:00:00 24.1 8 Nordeste 19 Sudeste 0 -- -- 28
2020-06-23 16:00:00 26.3 7 Noroeste 23 Noroeste 0 -- -- 35
2020-06-23 15:00:00 25.3 10 Oeste 19 Oeste 0 -- -- 32
2020-06-23 14:00:00 24.6 9 Oeste 17 Oeste 0 -- -- 34
2020-06-23 13:00:00 24.9 6 Norte 17 Nordeste 0 -- -- 26
2020-06-23 12:00:00 23.6 9 Este 18 Este 0 -- -- 19
2020-06-23 11:00:00 22.8 9 Este 16 Este 0 -- -- 12
2020-06-23 10:00:00 23.2 6 Nordeste 17 Nordeste 0 -- -- 12
2020-06-23 09:00:00 21.2 9 Nordeste 18 Este 0 -- -- 14
2020-06-23 08:00:00 16.9 9 Nordeste 16 Este 0 -- -- 16
2020-06-23 07:00:00 14.5 7 Nordeste 14 Nordeste 0 -- -- 20
2020-06-23 06:00:00 15.3 8 Nordeste 17 Nordeste 0 -- -- 17
2020-06-23 05:00:00 15.8 10 Este 18 Este 0 -- -- 15
2020-06-23 04:00:00 16.4 11 Este 18 Nordeste 0 -- -- 18
2020-06-23 03:00:00 16.3 10 Nordeste 19 Este 0 -- -- 17
2020-06-23 02:00:00 16.6 9 Este 19 Este 0 -- -- 15
2020-06-23 01:00:00 16.6 9 Este 17 Este 0 -- -- 16
2020-06-23 00:00:00 16.3 8 Este 17 Nordeste 0 -- -- 17
2020-06-22 23:00:00 16.2 12 Este 18 Este 0 -- -- 15
2020-06-22 22:00:00 17.1 10 Este 19 Nordeste 0 -- -- 16
2020-06-22 21:00:00 18.1 7 Nordeste 14 Nordeste 0 -- -- 19
2020-06-22 20:00:00 24.8 3 Norte 10 Norte 0 -- -- 19
2020-06-22 19:00:00 25.5 5 Noroeste 14 Noroeste 0 -- -- 16
2020-06-22 18:00:00 25.8 7 Norte 18 Noroeste 0 -- -- 24
2020-06-22 17:00:00 25.2 10 Oeste 17 Oeste 0 -- -- 38
2020-06-22 16:00:00 24.6 10 Oeste 18 Oeste 0 -- -- 39
2020-06-22 15:00:00 25.9 9 Oeste 17 Oeste 0 -- -- 35
2020-06-22 14:00:00 26.4 7 Noroeste 18 Oeste 0 -- -- 25
2020-06-22 13:00:00 24.7 6 Norte 14 Este 0 -- -- 21
2020-06-22 12:00:00 24.1 8 Este 16 Nordeste 0 -- -- 14
2020-06-22 11:00:00 22.6 9 Nordeste 18 Este 0 -- -- 15
2020-06-22 10:00:00 21.3 10 Este 18 Nordeste 0 -- -- 19
2020-06-22 09:00:00 20.2 10 Nordeste 20 Este 0 -- -- 20
2020-06-22 08:00:00 15.7 8 Este 17 Nordeste 0 -- -- 25
2020-06-22 07:00:00 15.1 8 Este 17 Nordeste 0 -- -- 20
2020-06-22 06:00:00 15.3 9 Nordeste 16 Este 0 -- -- 20
2020-06-22 05:00:00 15.2 9 Este 17 Nordeste 0 -- -- 16
2020-06-22 04:00:00 14.8 8 Este 14 Nordeste 0 -- -- 20
2020-06-22 03:00:00 14.9 8 Nordeste 13 Nordeste 0 -- -- 20
2020-06-22 02:00:00 16.3 9 Nordeste 16 Este 0 -- -- 17
2020-06-22 01:00:00 16.8 10 Este 16 Nordeste 0 -- -- 17
2020-06-22 00:00:00 16.8 8 Este 15 Este 0 -- -- 16
2020-06-21 23:00:00 16.9 8 Este 18 Este 0 -- -- 18
2020-06-21 22:00:00 17.2 8 Este 15 Este 0 -- -- 18
2020-06-21 21:00:00 18.1 7 Este 14 Este 0 -- -- 19
2020-06-21 20:00:00 20.8 8 Nordeste 14 Nordeste 0 -- -- 25
2020-06-21 19:00:00 22.5 9 Nordeste 17 Nordeste 0 -- -- 22
2020-06-21 18:00:00 22.9 10 Nordeste 19 Nordeste 0 -- -- 26
2020-06-21 17:00:00 23.4 11 Nordeste 21 Nordeste 0 -- -- 19
2020-06-21 16:00:00 23.4 11 Nordeste 24 Nordeste 0 -- -- 19
2020-06-21 15:00:00 22.7 13 Nordeste 24 Nordeste 0 -- -- 28
2020-06-21 14:00:00 23 13 Nordeste 24 Nordeste 0 -- -- 21
2020-06-21 13:00:00 22.5 13 Nordeste 23 Este 0 -- -- 20
2020-06-21 12:00:00 22.7 12 Nordeste 25 Este 0 -- -- 24
2020-06-21 11:00:00 21.6 12 Este 24 Este 0 -- -- 24
2020-06-21 10:00:00 20.2 14 Este 25 Este 0 -- -- 31
2020-06-21 09:00:00 20.5 13 Este 25 Nordeste 0 -- -- 14
2020-06-21 08:00:00 18.2 11 Este 22 Este 0 -- -- 13
2020-06-21 07:00:00 16.7 9 Este 19 Sudeste 0 -- -- 13
2020-06-21 06:00:00 15.7 6 Este 15 Nordeste 0 -- -- 14
2020-06-21 05:00:00 16 6 Este 13 Nordeste 0 -- -- 15
2020-06-21 04:00:00 16 8 Nordeste 13 Este 0 -- -- 16
2020-06-21 03:00:00 15.3 6 Este 14 Nordeste 0 -- -- 17
2020-06-21 02:00:00 16.1 8 Este 14 Nordeste 0 -- -- 15
2020-06-21 01:00:00 16 8 Nordeste 15 Este 0 -- -- 15
2020-06-21 00:00:00 16.1 8 Este 17 Este 0 -- -- 13
2020-06-20 23:00:00 16.3 9 Este 16 Nordeste 0 -- -- 14
2020-06-20 22:00:00 16.4 9 Nordeste 17 Este 0 -- -- 16
2020-06-20 21:00:00 17 6 Nordeste 15 Nordeste 0 -- -- 18
2020-06-20 20:00:00 20.9 8 Nordeste 15 Nordeste 0 -- -- 17
2020-06-20 19:00:00 23.6 6 Oeste 13 Oeste 0 -- -- 41
2020-06-20 18:00:00 24.3 4 Noroeste 17 Oeste 0 -- -- 40
2020-06-20 17:00:00 24.2 7 Noroeste 13 Noroeste 0 -- -- 38
2020-06-20 16:00:00 22.2 6 Nordeste 15 Este 0 -- -- 47
2020-06-20 15:00:00 21.3 7 Nordeste 17 Este 0 -- -- 46
2020-06-20 14:00:00 21.2 8 Este 16 Nordeste 0 -- -- 32
2020-06-20 13:00:00 20 9 Nordeste 16 Este 0 -- -- 42
2020-06-20 12:00:00 20 10 Nordeste 20 Nordeste 0 -- -- 35
2020-06-20 11:00:00 18.9 11 Nordeste 21 Nordeste 0 -- -- 29
2020-06-20 10:00:00 18.5 10 Este 19 Nordeste 0 -- -- 27
2020-06-20 09:00:00 16.5 8 Este 18 Nordeste 0 -- -- 35
2020-06-20 08:00:00 13.3 9 Este 17 Este 0 -- -- 41
2020-06-20 07:00:00 11.6 10 Nordeste 18 Nordeste 0 -- -- 49
2020-06-20 06:00:00 11.5 11 Nordeste 20 Nordeste 0 -- -- 50
2020-06-20 05:00:00 11.3 12 Nordeste 21 Nordeste 0 -- -- 52
2020-06-20 04:00:00 10.8 12 Nordeste 24 Este 0 -- -- 59
2020-06-20 03:00:00 11.2 13 Este 23 Nordeste 0 -- -- 57
2020-06-20 02:00:00 10.5 10 Este 26 Nordeste 0 -- -- 58
2020-06-20 01:00:00 8.6 14 Este 31 Nordeste 0 -- -- 97
2020-06-20 00:00:00 9.1 17 Este 32 Nordeste 0 -- -- 97
2020-06-19 23:00:00 9.7 16 Este 32 Este 0 -- -- 80
2020-06-19 22:00:00 11.4 16 Este 31 Este 0 -- -- 57
2020-06-19 21:00:00 12.2 19 Este 33 Este 0 -- -- 54
2020-06-19 20:00:00 13.9 16 Este 32 Este 0 -- -- 62
2020-06-19 19:00:00 15.3 15 Este 25 Este 0 -- -- 49
2020-06-19 18:00:00 15.8 14 Este 31 Este 0 -- -- 52
2020-06-19 17:00:00 15.6 16 Este 39 Nordeste 0 -- -- 60
2020-06-19 16:00:00 15.9 16 Este 34 Este 0 -- -- 57
2020-06-19 15:00:00 15.1 16 Este 35 Este 0 -- -- 62
2020-06-19 14:00:00 14.1 18 Este 37 Este 0 -- -- 80
2020-06-19 13:00:00 12.4 17 Este 40 Nordeste 0 -- -- 93
2020-06-19 12:00:00 11.1 19 Este 36 Este 0 -- -- 96
2020-06-19 11:00:00 10.1 20 Este 37 Nordeste 0 -- -- 98
2020-06-19 10:00:00 9.2 18 Este 34 Nordeste 0 -- -- 98
2020-06-19 09:00:00 9 18 Este 38 Este 0.2 -- -- 99
2020-06-19 08:00:00 9.4 19 Este 35 Este 0.4 -- -- 100
2020-06-19 07:00:00 9.6 18 Este 33 Este 0 -- -- 99
2020-06-19 06:00:00 8.4 15 Este 29 Nordeste 0 -- -- 100
2020-06-19 05:00:00 8.9 17 Este 32 Nordeste 0 -- -- 100
2020-06-19 04:00:00 9.8 18 Este 30 Nordeste 0.2 -- -- 99
2020-06-19 03:00:00 9.2 15 Este 31 Nordeste 0 -- -- 99
2020-06-19 02:00:00 9.8 17 Este 34 Nordeste 0 -- -- 98
2020-06-19 01:00:00 9.9 19 Este 31 Este 0.2 -- -- 99
2020-06-19 00:00:00 10.2 17 Este 36 Este 0 -- -- 98
2020-06-18 23:00:00 9.6 15 Este 32 Este 0 -- -- 97
2020-06-18 22:00:00 9.4 14 Este 28 Este 0 -- -- 81
2020-06-18 21:00:00 10.5 8 Este 18 Este 0 -- -- 69
2020-06-18 20:00:00 12.7 9 Este 24 Este 0 -- -- 63
2020-06-18 19:00:00 13.7 8 Este 26 Este 0 -- -- 67
2020-06-18 18:00:00 14.9 10 Este 22 Este 0 -- -- 61
2020-06-18 17:00:00 16.4 9 Este 18 Oeste 0 -- -- 62
2020-06-18 16:00:00 17.1 6 Oeste 19 Este 0 -- -- 66
2020-06-18 15:00:00 18.6 9 Noroeste 20 Oeste 0 -- -- 60
2020-06-18 14:00:00 18.8 6 Norte 16 Este 0 -- -- 55
2020-06-18 13:00:00 17 6 Este 15 Nordeste 0 -- -- 60
2020-06-18 12:00:00 16.2 6 Nordeste 18 Noroeste 0 -- -- 44
2020-06-18 11:00:00 13.9 8 Noroeste 16 Noroeste 0 -- -- 72
2020-06-18 10:00:00 10.5 7 Oeste 17 Este 0 -- -- 92
2020-06-18 09:00:00 9.5 6 Noroeste 19 Norte 0 -- -- 98
2020-06-18 08:00:00 9.2 6 Noroeste 17 Oeste 0 -- -- 99
2020-06-18 07:00:00 8.8 5 Oeste 10 Oeste 0 -- -- 99
2020-06-18 06:00:00 9.4 3 Noroeste 30 Oeste 0 -- -- 99
2020-06-18 05:00:00 9.9 9 Oeste 19 Oeste 0 -- -- 99
2020-06-18 04:00:00 9.2 3 Oeste 12 Oeste 0 -- -- 99
2020-06-18 03:00:00 9.6 7 Oeste 17 Oeste 0 -- -- 98
2020-06-18 02:00:00 10 6 Oeste 19 Oeste 0 -- -- 99
2020-06-18 01:00:00 10.8 14 Oeste 24 Oeste 0 -- -- 98
2020-06-18 00:00:00 11.5 12 Oeste 23 Sudoeste 0 -- -- 98
2020-06-17 23:00:00 11.8 15 Oeste 27 Sudoeste 0 -- -- 97
2020-06-17 22:00:00 13.6 17 Sudoeste 31 Sudoeste 0 -- -- 80
2020-06-17 21:00:00 13.2 13 Oeste 37 Oeste 0 -- -- 95
2020-06-17 20:00:00 15.3 10 Oeste 53 Oeste 0 -- -- 90
2020-06-17 19:00:00 17.6 26 Oeste 46 Oeste 0 -- -- 69
2020-06-17 18:00:00 19.5 28 Oeste 47 Oeste 0 -- -- 62
2020-06-17 17:00:00 18.8 29 Oeste 53 Oeste 0 -- -- 64
2020-06-17 16:00:00 20.7 33 Oeste 63 Oeste 0 -- -- 52
2020-06-17 15:00:00 20.4 33 Oeste 58 Oeste 0 -- -- 55
2020-06-17 14:00:00 20.4 28 Oeste 58 Oeste 0 -- -- 55
2020-06-17 13:00:00 20.9 36 Oeste 63 Oeste 0 -- -- 51
2020-06-17 12:00:00 20.5 22 Oeste 43 Noroeste 0 -- -- 55
2020-06-17 11:00:00 20.2 30 Oeste 57 Oeste 0 -- -- 50
2020-06-17 10:00:00 17.5 41 Oeste 64 Oeste 0 -- -- 60
2020-06-17 09:00:00 16.6 37 Oeste 58 Oeste 0 -- -- 63
2020-06-17 08:00:00 15.6 34 Oeste 63 Oeste 0 -- -- 69
2020-06-17 07:00:00 15.7 36 Oeste 72 Oeste 0 -- -- 65
2020-06-17 06:00:00 15.7 33 Oeste 49 Oeste 0 -- -- 68
2020-06-17 05:00:00 15.6 29 Oeste 60 Oeste 0 -- -- 68
2020-06-17 04:00:00 15.6 35 Oeste 70 Oeste 0 -- -- 68
2020-06-17 03:00:00 16.1 47 Oeste 64 Oeste 0 -- -- 66
2020-06-17 02:00:00 14.2 22 Oeste 46 Oeste 0 -- -- 73
2020-06-17 01:00:00 14.9 23 Oeste 51 Oeste 0 -- -- 68
2020-06-17 00:00:00 15.4 22 Oeste 63 Oeste 0 -- -- 66
2020-06-16 23:00:00 15.6 15 Oeste 50 Oeste 0 -- -- 62
2020-06-16 22:00:00 15.8 16 Oeste 62 Oeste 0 -- -- 60
2020-06-16 21:00:00 16 18 Oeste 45 Oeste 0 -- -- 63
2020-06-16 20:00:00 16.3 12 Oeste 34 Sudoeste 0 -- -- 59
2020-06-16 19:00:00 17.4 8 Oeste 32 Este 0 -- -- 57
2020-06-16 18:00:00 17.4 11 Noroeste 36 Nordeste 0 -- -- 54
2020-06-16 17:00:00 19 10 Noroeste 29 Norte 0 -- -- 50
2020-06-16 16:00:00 20.3 9 Oeste 45 Oeste 0 -- -- 45
2020-06-16 15:00:00 21.9 24 Oeste 50 Oeste 0 -- -- 42
2020-06-16 14:00:00 21.9 29 Oeste 51 Oeste 0 -- -- 43
2020-06-16 13:00:00 21.7 17 Oeste 53 Oeste 0 -- -- 43
2020-06-16 12:00:00 21.3 15 Oeste 43 Oeste 0 -- -- 44
2020-06-16 11:00:00 21.1 13 Oeste 38 Oeste 0 -- -- 46
2020-06-16 10:00:00 20.6 10 Oeste 37 Oeste 0 -- -- 45
2020-06-16 09:00:00 18.8 4 Sudeste 22 Este 0 -- -- 52
2020-06-16 08:00:00 17.3 7 Sur 30 Noroeste 0 -- -- 51
2020-06-16 07:00:00 17.3 6 Norte 28 Sudoeste 0 -- -- 50
2020-06-16 06:00:00 16.5 6 Sudoeste 25 Oeste 0 -- -- 54
2020-06-16 05:00:00 17.2 5 Norte 29 Noroeste 0 -- -- 51
2020-06-16 04:00:00 16.9 5 Oeste 19 Norte 0 -- -- 50
2020-06-16 03:00:00 16.9 5 Noroeste 21 Oeste 0 -- -- 51
2020-06-16 02:00:00 17 5 Oeste 45 Oeste 0 -- -- 48
2020-06-16 01:00:00 17.6 10 Noroeste 30 Oeste 0 -- -- 46
2020-06-16 00:00:00 16.7 5 Noroeste 21 Oeste 0 -- -- 48
2020-06-15 23:00:00 16.9 8 Noroeste 37 Oeste 0 -- -- 47
2020-06-15 22:00:00 17.7 11 Oeste 33 Sudoeste 0 -- -- 44
2020-06-15 21:00:00 17.4 5 Noroeste 33 Noroeste 0 -- -- 45
2020-06-15 20:00:00 17.9 10 Oeste 34 Sudoeste 0 -- -- 47
2020-06-15 19:00:00 18.3 9 Oeste 43 Sudoeste 0 -- -- 53
2020-06-15 18:00:00 17.2 12 Oeste 39 Oeste 0 -- -- 58
2020-06-15 17:00:00 19.8 17 Oeste 40 Oeste 0 -- -- 51
2020-06-15 16:00:00 20 22 Oeste 44 Oeste 0 -- -- 53
2020-06-15 15:00:00 20.1 24 Oeste 41 Oeste 0 -- -- 54
2020-06-15 14:00:00 19.9 15 Oeste 35 Oeste 0 -- -- 55
2020-06-15 13:00:00 19.2 19 Oeste 36 Oeste 0 -- -- 60
2020-06-15 12:00:00 19.9 17 Oeste 31 Oeste 0 -- -- 57
2020-06-15 11:00:00 19.3 7 Oeste 24 Oeste 0 -- -- 61
2020-06-15 10:00:00 18.5 9 Oeste 21 Oeste 0 -- -- 63
2020-06-15 09:00:00 18.8 9 Noroeste 29 Oeste 0 -- -- 55
2020-06-15 08:00:00 18.3 18 Oeste 35 Oeste 0 -- -- 52
2020-06-15 07:00:00 16.4 13 Oeste 26 Oeste 0 -- -- 62
2020-06-15 06:00:00 16.8 13 Oeste 31 Oeste 0 -- -- 61
2020-06-15 05:00:00 17.2 14 Oeste 32 Oeste 0 -- -- 57
2020-06-15 04:00:00 16.4 19 Oeste 35 Oeste 0.2 -- -- 62
2020-06-15 03:00:00 15.7 11 Oeste 31 Oeste 0 -- -- 69
2020-06-15 02:00:00 14.8 15 Oeste 39 Oeste 0.6 -- -- 77
2020-06-15 01:00:00 15.9 22 Oeste 37 Oeste 0.2 -- -- 70
2020-06-15 00:00:00 16.2 21 Sudoeste 37 Sudoeste 0.6 -- -- 68
2020-06-14 23:00:00 16.8 18 Sudoeste 45 Oeste 0.2 -- -- 64
2020-06-14 22:00:00 16.1 18 Oeste 37 Oeste 0.4 -- -- 71
2020-06-14 21:00:00 17.8 14 Oeste 26 Oeste 0 -- -- 50
2020-06-14 20:00:00 19.5 6 Oeste 23 Oeste 0 -- -- 37
2020-06-14 19:00:00 20.4 9 Oeste 22 Oeste 0 -- -- 33
2020-06-14 18:00:00 21.6 11 Oeste 20 Oeste 0 -- -- 33
2020-06-14 17:00:00 20.7 7 Oeste 16 Oeste 0 -- -- 50
2020-06-14 16:00:00 21.3 6 Oeste 21 Oeste 0 -- -- 47
2020-06-14 15:00:00 21.9 13 Oeste 20 Oeste 0 -- -- 47
2020-06-14 14:00:00 21.7 8 Oeste 22 Oeste 0 -- -- 39
2020-06-14 13:00:00 22.5 9 Noroeste 16 Oeste 0 -- -- 24
2020-06-14 12:00:00 22.4 10 Oeste 24 Oeste 0 -- -- 17
2020-06-14 11:00:00 21.7 10 Oeste 23 Oeste 0 -- -- 17
2020-06-14 10:00:00 20.7 15 Oeste 22 Oeste 0 -- -- 13
2020-06-14 09:00:00 20.2 4 Oeste 12 Oeste 0 -- -- 8
2020-06-14 08:00:00 14.8 4 Sur 10 Sudoeste 0 -- -- 14
2020-06-14 07:00:00 15.1 3 Sudoeste 17 Sudoeste 0 -- -- 9
2020-06-14 06:00:00 16.5 10 Sudoeste 28 Oeste 0 -- -- 8
2020-06-14 05:00:00 16.5 15 Oeste 27 Oeste 0 -- -- 9
2020-06-14 04:00:00 16.6 14 Oeste 30 Oeste 0 -- -- 10
2020-06-14 03:00:00 15.3 9 Sudoeste 21 Sudoeste 0 -- -- 11
2020-06-14 02:00:00 13.1 5 Sudoeste 13 Sur 0 -- -- 17
2020-06-14 01:00:00 11.2 0 Calma 5 Sudeste 0 -- -- 26
2020-06-14 00:00:00 11.9 0 Calma 18 Sudoeste 0 -- -- 30
2020-06-13 23:00:00 13.3 7 Sudoeste 16 Oeste 0 -- -- 21
2020-06-13 22:00:00 13 5 Sudoeste 16 Sudoeste 0 -- -- 28
2020-06-13 21:00:00 13.4 5 Oeste 19 Oeste 0 -- -- 47
2020-06-13 20:00:00 14.8 14 Oeste 24 Oeste 0 -- -- 68
2020-06-13 19:00:00 17 13 Oeste 26 Oeste 0 -- -- 49
2020-06-13 18:00:00 17 19 Oeste 32 Oeste 0 -- -- 46
2020-06-13 17:00:00 17.2 19 Oeste 31 Oeste 0 -- -- 53
2020-06-13 16:00:00 17.4 17 Oeste 29 Oeste 0 -- -- 61
2020-06-13 15:00:00 17.6 17 Oeste 34 Oeste 0 -- -- 60
2020-06-13 14:00:00 18.8 14 Oeste 28 Sudoeste 0 -- -- 53
2020-06-13 13:00:00 18.4 14 Oeste 30 Oeste 0 -- -- 51
2020-06-13 12:00:00 18 15 Sudoeste 35 Sudoeste 0 -- -- 46
2020-06-13 11:00:00 17.1 17 Sudoeste 39 Sudoeste 0 -- -- 34
2020-06-13 10:00:00 15.1 17 Sudoeste 39 Sudoeste 0 -- -- 35
2020-06-13 09:00:00 15.1 19 Sudoeste 43 Sudoeste 0 -- -- 25
2020-06-13 08:00:00 15 15 Sudoeste 31 Sudoeste 0 -- -- 22
2020-06-13 07:00:00 11.4 13 Sudoeste 24 Oeste 0 -- -- 37
2020-06-13 06:00:00 11.5 12 Sudoeste 34 Sudoeste 0 -- -- 29
2020-06-13 05:00:00 8.4 6 Sudoeste 19 Sudoeste 0 -- -- 90
2020-06-13 04:00:00 10.8 11 Sudoeste 29 Oeste 0 -- -- 49
2020-06-13 03:00:00 11.7 13 Oeste 35 Oeste 0 -- -- 47
2020-06-13 02:00:00 13 19 Oeste 37 Oeste 0 -- -- 49
2020-06-13 01:00:00 14.2 18 Sudoeste 35 Sudoeste 0 -- -- 49
2020-06-13 00:00:00 11.4 7 Sudoeste 39 Sudoeste 0 -- -- 63
2020-06-12 23:00:00 15 17 Oeste 33 Sudoeste 0 -- -- 43
2020-06-12 22:00:00 15.6 16 Sudoeste 36 Sudoeste 0 -- -- 26
2020-06-12 21:00:00 14.8 21 Sudoeste 43 Sudoeste 0 -- -- 36
2020-06-12 20:00:00 13.4 14 Sudoeste 35 Sudoeste 0 -- -- 52
2020-06-12 19:00:00 14.5 11 Sudoeste 32 Sudoeste 0 -- -- 39
2020-06-12 18:00:00 15.9 15 Sudoeste 31 Oeste 0 -- -- 43
2020-06-12 17:00:00 17.5 14 Oeste 31 Sudoeste 0 -- -- 36
2020-06-12 16:00:00 17.7 15 Sudoeste 28 Sudoeste 0 -- -- 42
2020-06-12 15:00:00 18.4 15 Oeste 25 Sudoeste 0 -- -- 50
2020-06-12 14:00:00 16.4 13 Oeste 25 Oeste 0 -- -- 66
2020-06-12 13:00:00 15.4 14 Oeste 25 Oeste 0 -- -- 66
2020-06-12 12:00:00 15 13 Oeste 24 Oeste 0 -- -- 60
2020-06-12 11:00:00 15.5 7 Noroeste 22 Oeste 0 -- -- 63
2020-06-12 10:00:00 14.9 8 Oeste 31 Oeste 0 -- -- 52
2020-06-12 09:00:00 16.6 15 Oeste 31 Oeste 0 -- -- 21
2020-06-12 08:00:00 14 17 Oeste 29 Oeste 0 -- -- 23
2020-06-12 07:00:00 12.9 15 Oeste 42 Sudoeste 0 -- -- 32
2020-06-12 06:00:00 14.7 20 Sudoeste 44 Sudoeste 0 -- -- 24
2020-06-12 05:00:00 15.2 23 Sudoeste 48 Sudoeste 0 -- -- 21
2020-06-12 04:00:00 13.5 17 Sudoeste 37 Sudoeste 0 -- -- 36
2020-06-12 03:00:00 12.7 15 Oeste 45 Oeste 0 -- -- 49
2020-06-12 02:00:00 14.6 24 Sudoeste 41 Oeste 0 -- -- 63
2020-06-12 01:00:00 14 17 Sudoeste 46 Oeste 0 -- -- 66
2020-06-12 00:00:00 15.6 24 Sudoeste 49 Oeste 0 -- -- 56
2020-06-11 23:00:00 15.9 23 Sudoeste 53 Oeste 0 -- -- 62
2020-06-11 22:00:00 15.3 17 Oeste 42 Sudoeste 0 -- -- 67
2020-06-11 21:00:00 16.1 18 Sudoeste 37 Oeste 0 -- -- 65
2020-06-11 20:00:00 17.4 14 Sudoeste 30 Sudoeste 0 -- -- 63
2020-06-11 19:00:00 16.9 20 Sudoeste 32 Sudoeste 0 -- -- 62
2020-06-11 18:00:00 14.5 12 Oeste 27 Oeste 0 -- -- 84
2020-06-11 17:00:00 18.4 17 Oeste 35 Sur 0 -- -- 67
2020-06-11 16:00:00 18.6 11 Oeste 30 Oeste 0 -- -- 65
2020-06-11 15:00:00 18.4 16 Oeste 29 Sudoeste 0 -- -- 70
2020-06-11 14:00:00 17.8 14 Oeste 30 Oeste 0 -- -- 72
2020-06-11 13:00:00 19.4 17 Oeste 37 Oeste 0 -- -- 61
2020-06-11 12:00:00 20.3 15 Oeste 36 Sudoeste 0 -- -- 55
2020-06-11 11:00:00 20.1 17 Sudoeste 33 Oeste 0 -- -- 52
2020-06-11 10:00:00 18.8 14 Sudoeste 31 Sudoeste 0 -- -- 51
2020-06-11 09:00:00 17.4 13 Sudoeste 30 Oeste 0 -- -- 55
2020-06-11 08:00:00 16.1 16 Oeste 36 Oeste 0 -- -- 58
2020-06-11 07:00:00 15.8 17 Oeste 33 Oeste 0 -- -- 53
2020-06-11 06:00:00 15.8 17 Oeste 31 Oeste 0 -- -- 53
2020-06-11 05:00:00 15.9 16 Oeste 34 Oeste 0 -- -- 51
2020-06-11 04:00:00 16.2 16 Oeste 32 Sudoeste 0 -- -- 52
2020-06-11 03:00:00 15.8 15 Oeste 30 Oeste 0 -- -- 54
2020-06-11 02:00:00 15.3 14 Oeste 28 Oeste 0 -- -- 58
2020-06-11 01:00:00 15.5 12 Sudoeste 23 Oeste 0 -- -- 59
2020-06-11 00:00:00 14.7 11 Oeste 22 Oeste 0 -- -- 65
2020-06-10 23:00:00 14.8 12 Oeste 27 Oeste 0 -- -- 66
2020-06-10 22:00:00 15.1 13 Oeste 24 Oeste 0 -- -- 66
2020-06-10 21:00:00 15.1 15 Oeste 23 Oeste 0 -- -- 67
2020-06-10 20:00:00 15.9 13 Oeste 25 Oeste 0 -- -- 66
2020-06-10 19:00:00 18 16 Oeste 25 Oeste 0 -- -- 59
2020-06-10 18:00:00 18.5 13 Oeste 30 Oeste 0 -- -- 58
2020-06-10 17:00:00 18.2 19 Oeste 33 Oeste 0 -- -- 58
2020-06-10 16:00:00 18.9 18 Oeste 29 Oeste 0 -- -- 56
2020-06-10 15:00:00 18.1 18 Oeste 30 Oeste 0 -- -- 56
2020-06-10 14:00:00 17.7 20 Oeste 31 Noroeste 0 -- -- 55
2020-06-10 13:00:00 17.1 15 Oeste 23 Oeste 0 -- -- 65
2020-06-10 12:00:00 16.2 13 Oeste 21 Oeste 0 -- -- 64
2020-06-10 11:00:00 16.7 11 Oeste 26 Oeste 0 -- -- 58
2020-06-10 10:00:00 15.8 12 Oeste 23 Sudoeste 0 -- -- 47
2020-06-10 09:00:00 14.5 10 Oeste 24 Sudoeste 0 -- -- 47
2020-06-10 08:00:00 14.7 15 Sudoeste 31 Sudoeste 0 -- -- 45
2020-06-10 07:00:00 12.6 11 Sudoeste 20 Sudoeste 0 -- -- 45
2020-06-10 06:00:00 11.8 4 Sudoeste 11 Sur 0 -- -- 45
2020-06-10 05:00:00 9.9 5 Sur 12 Sudoeste 0 -- -- 59
2020-06-10 04:00:00 9.9 6 Sudoeste 13 Sur 0 -- -- 64
2020-06-10 03:00:00 9.8 5 Sudoeste 17 Sur 0 -- -- 90
2020-06-10 02:00:00 11.5 4 Sudoeste 8 Sudoeste 0 -- -- 52
2020-06-10 01:00:00 13 2 Sudeste 5 Sudeste 0 -- -- 26
2020-06-10 00:00:00 13.2 2 Este 8 Nordeste 0 -- -- 23
2020-06-09 23:00:00 12.7 2 Este 4 Este 0 -- -- 31
2020-06-09 22:00:00 13.2 0 Calma 5 Nordeste 0 -- -- 32
2020-06-09 21:00:00 15.5 0 Calma 10 Norte 0 -- -- 35
2020-06-09 20:00:00 18.7 7 Oeste 14 Oeste 0 -- -- 52
2020-06-09 19:00:00 18.6 6 Oeste 18 Oeste 0 -- -- 58
2020-06-09 18:00:00 18.4 10 Noroeste 17 Oeste 0 -- -- 68
2020-06-09 17:00:00 18.2 10 Noroeste 21 Oeste 0 -- -- 69
2020-06-09 16:00:00 18 11 Noroeste 22 Oeste 0 -- -- 71
2020-06-09 15:00:00 18.4 8 Noroeste 24 Oeste 0 -- -- 69
2020-06-09 14:00:00 17.9 6 Norte 18 Noroeste 0 -- -- 69
2020-06-09 13:00:00 17.3 10 Oeste 25 Oeste 0 -- -- 64
2020-06-09 12:00:00 18.4 10 Noroeste 24 Noroeste 0 -- -- 50
2020-06-09 11:00:00 18.8 8 Noroeste 14 Noroeste 0 -- -- 40
2020-06-09 10:00:00 20 6 Oeste 16 Sudoeste 0 -- -- 14
2020-06-09 09:00:00 19.3 4 Sudoeste 8 Oeste 0 -- -- 16
2020-06-09 08:00:00 12.9 4 Sur 11 Sudoeste 0 -- -- 17
2020-06-09 07:00:00 13 4 Sur 9 Sur 0 -- -- 14
2020-06-09 06:00:00 11.4 3 Sur 6 Sur 0 -- -- 16
2020-06-09 05:00:00 10.7 2 Este 4 Este 0 -- -- 23
2020-06-09 04:00:00 10.8 2 Nordeste 4 Sudeste 0 -- -- 27
2020-06-09 03:00:00 11.7 2 Sudeste 4 Sur 0 -- -- 21
2020-06-09 02:00:00 11.9 0 Calma 4 Sur 0 -- -- 20
2020-06-09 01:00:00 11 3 Sudeste 6 Este 0 -- -- 27
2020-06-09 00:00:00 12.2 2 Norte 6 Noroeste 0 -- -- 21